iso_date,epoch_date,Year,Hour,Min,DOY,POS_DOY,Lat,Lon,BP,Ts,Ta,has_bp,has_ts,has_ta,BuoyID,Buoy_Type,Buoy_Owner,Logistics,Hemisphere
2015-04-20T10:00:28Z,1429524029,2015,10,0,110.417,110.417,83.0562,15.2226,1003.7,-4.5,-999.0,yes,yes,no,300234061369140,CALIB,AWI-USIABP,unknown,North
2015-04-20T10:59:31Z,1429527571,2015,11,0,110.458,110.458,83.0562,15.2226,1003.8,-5.3,-999.0,yes,yes,no,300234061369140,CALIB,AWI-USIABP,unknown,North
2015-04-20T12:00:00Z,1429531200,2015,12,0,110.5,110.5,83.009,15.2416,1004.0,-5.9,-999.0,yes,yes,no,300234061369140,CALIB,AWI-USIABP,unknown,North
2015-04-20T13:00:28Z,1429534829,2015,13,0,110.542,110.542,83.009,15.2416,1004.3,-6.3,-999.0,yes,yes,no,300234061369140,CALIB,AWI-USIABP,unknown,North
2015-04-20T13:59:31Z,1429538371,2015,14,0,110.583,110.583,83.009,15.2416,1004.5,-6.5,-999.0,yes,yes,no,300234061369140,CALIB,AWI-USIABP,unknown,North
2015-04-20T15:00:00Z,1429542000,2015,15,0,110.625,110.625,82.9934,15.4108,1004.8,-6.7,-999.0,yes,yes,no,300234061369140,CALIB,AWI-USIABP,unknown,North
2015-04-20T16:00:28Z,1429545629,2015,16,0,110.667,110.667,82.9934,15.4108,1005.1,-6.9,-999.0,yes,yes,no,300234061369140,CALIB,AWI-USIABP,unknown,North
2015-04-20T16:59:31Z,1429549171,2015,17,0,110.708,110.708,82.9934,15.4108,1005.4,-7.0,-999.0,yes,yes,no,300234061369140,CALIB,AWI-USIABP,unknown,North
2015-04-20T18:00:00Z,1429552800,2015,18,0,110.75,110.75,82.9784,15.5682,1005.7,-7.1,-999.0,yes,yes,no,300234061369140,CALIB,AWI-USIABP,unknown,North
2015-04-20T19:00:28Z,1429556429,2015,19,0,110.792,110.792,82.9784,15.5682,1006.2,-7.2,-999.0,yes,yes,no,300234061369140,CALIB,AWI-USIABP,unknown,North
2015-04-20T19:59:31Z,1429559971,2015,20,0,110.833,110.833,82.9784,15.5682,1006.6,-7.3,-999.0,yes,yes,no,300234061369140,CALIB,AWI-USIABP,unknown,North
2015-04-20T21:00:00Z,1429563600,2015,21,0,110.875,110.875,82.9658,15.707,1006.9,-7.3,-999.0,yes,yes,no,300234061369140,CALIB,AWI-USIABP,unknown,North
2015-04-20T22:00:28Z,1429567229,2015,22,0,110.917,110.917,82.9658,15.707,1007.1,-7.4,-999.0,yes,yes,no,300234061369140,CALIB,AWI-USIABP,unknown,North
2015-04-20T22:59:31Z,1429570771,2015,23,0,110.958,110.958,82.9658,15.707,1007.5,-7.5,-999.0,yes,yes,no,300234061369140,CALIB,AWI-USIABP,unknown,North
2015-04-21T00:00:00Z,1429574400,2015,0,0,111.0,111.0,82.9504,15.8422,1007.7,-7.5,-999.0,yes,yes,no,300234061369140,CALIB,AWI-USIABP,unknown,North
2015-04-21T01:00:28Z,1429578029,2015,1,0,111.042,111.042,82.9504,15.8422,1008.2,-7.6,-999.0,yes,yes,no,300234061369140,CALIB,AWI-USIABP,unknown,North
2015-04-21T01:59:31Z,1429581571,2015,2,0,111.083,111.083,82.9504,15.8422,1008.4,-7.6,-999.0,yes,yes,no,300234061369140,CALIB,AWI-USIABP,unknown,North
2015-04-21T03:00:00Z,1429585200,2015,3,0,111.125,111.125,82.9368,15.9744,1008.7,-7.7,-999.0,yes,yes,no,300234061369140,CALIB,AWI-USIABP,unknown,North
2015-04-21T04:00:28Z,1429588829,2015,4,0,111.167,111.167,82.9368,15.9744,1008.9,-7.7,-999.0,yes,yes,no,300234061369140,CALIB,AWI-USIABP,unknown,North
2015-04-21T04:59:31Z,1429592371,2015,5,0,111.208,111.208,82.9368,15.9744,1009.2,-7.8,-999.0,yes,yes,no,300234061369140,CALIB,AWI-USIABP,unknown,North
2015-04-21T06:00:00Z,1429596000,2015,6,0,111.25,111.25,82.9294,16.0978,1009.3,-7.8,-999.0,yes,yes,no,300234061369140,CALIB,AWI-USIABP,unknown,North
2015-04-21T07:00:28Z,1429599629,2015,7,0,111.292,111.292,82.9294,16.0978,1009.8,-7.8,-999.0,yes,yes,no,300234061369140,CALIB,AWI-USIABP,unknown,North
2015-04-21T07:59:31Z,1429603171,2015,8,0,111.333,111.333,82.9294,16.0978,1010.0,-7.9,-999.0,yes,yes,no,300234061369140,CALIB,AWI-USIABP,unknown,North
2015-04-21T09:00:00Z,1429606800,2015,9,0,111.375,111.375,82.9242,16.1952,1010.4,-7.9,-999.0,yes,yes,no,300234061369140,CALIB,AWI-USIABP,unknown,North
2015-04-21T10:00:28Z,1429610429,2015,10,0,111.417,111.417,82.9242,16.1952,1010.5,-7.9,-999.0,yes,yes,no,300234061369140,CALIB,AWI-USIABP,unknown,North
2015-04-21T10:59:31Z,1429613971,2015,11,0,111.458,111.458,82.9242,16.1952,1010.7,-7.9,-999.0,yes,yes,no,300234061369140,CALIB,AWI-USIABP,unknown,North
2015-04-21T12:00:00Z,1429617600,2015,12,0,111.5,111.5,82.9148,16.2856,1010.6,-7.9,-999.0,yes,yes,no,300234061369140,CALIB,AWI-USIABP,unknown,North
2015-04-21T13:00:28Z,1429621229,2015,13,0,111.542,111.542,82.9148,16.2856,1010.6,-7.9,-999.0,yes,yes,no,300234061369140,CALIB,AWI-USIABP,unknown,North
2015-04-21T13:59:31Z,1429624771,2015,14,0,111.583,111.583,82.9148,16.2856,1010.7,-7.9,-999.0,yes,yes,no,300234061369140,CALIB,AWI-USIABP,unknown,North
2015-04-21T15:00:00Z,1429628400,2015,15,0,111.625,111.625,82.9006,16.3676,1010.8,-7.9,-999.0,yes,yes,no,300234061369140,CALIB,AWI-USIABP,unknown,North
2015-04-21T16:00:28Z,1429632029,2015,16,0,111.667,111.667,82.9006,16.3676,1010.9,-7.9,-999.0,yes,yes,no,300234061369140,CALIB,AWI-USIABP,unknown,North
2015-04-21T16:59:31Z,1429635571,2015,17,0,111.708,111.708,82.9006,16.3676,1010.6,-7.9,-999.0,yes,yes,no,300234061369140,CALIB,AWI-USIABP,unknown,North
2015-04-21T18:00:00Z,1429639200,2015,18,0,111.75,111.75,82.8882,16.4112,1010.4,-7.9,-999.0,yes,yes,no,300234061369140,CALIB,AWI-USIABP,unknown,North
2015-04-21T19:00:28Z,1429642829,2015,19,0,111.792,111.792,82.8882,16.4112,1010.2,-7.9,-999.0,yes,yes,no,300234061369140,CALIB,AWI-USIABP,unknown,North
2015-04-21T19:59:31Z,1429646371,2015,20,0,111.833,111.833,82.8882,16.4112,1010.0,-7.9,-999.0,yes,yes,no,300234061369140,CALIB,AWI-USIABP,unknown,North
2015-04-21T21:00:00Z,1429650000,2015,21,0,111.875,111.875,82.882,16.4662,1009.7,-7.9,-999.0,yes,yes,no,300234061369140,CALIB,AWI-USIABP,unknown,North
2015-04-21T22:00:28Z,1429653629,2015,22,0,111.917,111.917,82.882,16.4662,1009.6,-7.8,-999.0,yes,yes,no,300234061369140,CALIB,AWI-USIABP,unknown,North
2015-04-21T22:59:31Z,1429657171,2015,23,0,111.958,111.958,82.882,16.4662,1009.5,-7.8,-999.0,yes,yes,no,300234061369140,CALIB,AWI-USIABP,unknown,North
2015-04-22T00:00:00Z,1429660800,2015,0,0,112.0,112.0,82.8716,16.53,1009.3,-7.8,-999.0,yes,yes,no,300234061369140,CALIB,AWI-USIABP,unknown,North
2015-04-22T01:00:28Z,1429664429,2015,1,0,112.042,112.042,82.8716,16.53,1009.4,-7.8,-999.0,yes,yes,no,300234061369140,CALIB,AWI-USIABP,unknown,North
2015-04-22T01:59:31Z,1429667971,2015,2,0,112.083,112.083,82.8716,16.53,1009.3,-7.8,-999.0,yes,yes,no,300234061369140,CALIB,AWI-USIABP,unknown,North
2015-04-22T03:00:00Z,1429671600,2015,3,0,112.125,112.125,82.8604,16.5762,1009.6,-7.8,-999.0,yes,yes,no,300234061369140,CALIB,AWI-USIABP,unknown,North
2015-04-22T04:00:28Z,1429675229,2015,4,0,112.167,112.167,82.8604,16.5762,1009.6,-7.8,-999.0,yes,yes,no,300234061369140,CALIB,AWI-USIABP,unknown,North
2015-04-22T04:59:31Z,1429678771,2015,5,0,112.208,112.208,82.8604,16.5762,1009.9,-7.8,-999.0,yes,yes,no,300234061369140,CALIB,AWI-USIABP,unknown,North
2015-04-22T06:00:00Z,1429682400,2015,6,0,112.25,112.25,82.8526,16.608,1010.1,-7.8,-999.0,yes,yes,no,300234061369140,CALIB,AWI-USIABP,unknown,North
2015-04-22T07:00:28Z,1429686029,2015,7,0,112.292,112.292,82.8526,16.608,1010.3,-7.7,-999.0,yes,yes,no,300234061369140,CALIB,AWI-USIABP,unknown,North
2015-04-22T07:59:31Z,1429689571,2015,8,0,112.333,112.333,82.8526,16.608,1010.7,-7.7,-999.0,yes,yes,no,300234061369140,CALIB,AWI-USIABP,unknown,North
2015-04-22T09:00:00Z,1429693200,2015,9,0,112.375,112.375,82.845,16.61,1010.8,-7.7,-999.0,yes,yes,no,300234061369140,CALIB,AWI-USIABP,unknown,North
2015-04-22T10:00:28Z,1429696829,2015,10,0,112.417,112.417,82.845,16.61,1011.0,-7.8,-999.0,yes,yes,no,300234061369140,CALIB,AWI-USIABP,unknown,North
2015-04-22T10:59:31Z,1429700371,2015,11,0,112.458,112.458,82.845,16.61,1010.9,-7.8,-999.0,yes,yes,no,300234061369140,CALIB,AWI-USIABP,unknown,North
2015-04-22T12:00:00Z,1429704000,2015,12,0,112.5,112.5,82.8324,16.623,1010.9,-7.8,-999.0,yes,yes,no,300234061369140,CALIB,AWI-USIABP,unknown,North
2015-04-22T13:00:28Z,1429707629,2015,13,0,112.542,112.542,82.8324,16.623,1010.9,-7.8,-999.0,yes,yes,no,300234061369140,CALIB,AWI-USIABP,unknown,North
2015-04-22T13:59:31Z,1429711171,2015,14,0,112.583,112.583,82.8324,16.623,1010.9,-7.8,-999.0,yes,yes,no,300234061369140,CALIB,AWI-USIABP,unknown,North
2015-04-22T15:00:00Z,1429714800,2015,15,0,112.625,112.625,82.818,16.6372,1010.9,-7.8,-999.0,yes,yes,no,300234061369140,CALIB,AWI-USIABP,unknown,North
2015-04-22T16:00:28Z,1429718429,2015,16,0,112.667,112.667,82.818,16.6372,1010.8,-7.9,-999.0,yes,yes,no,300234061369140,CALIB,AWI-USIABP,unknown,North
2015-04-22T16:59:31Z,1429721971,2015,17,0,112.708,112.708,82.818,16.6372,1010.5,-7.9,-999.0,yes,yes,no,300234061369140,CALIB,AWI-USIABP,unknown,North
2015-04-22T18:00:00Z,1429725600,2015,18,0,112.75,112.75,82.8104,16.6516,1010.6,-7.9,-999.0,yes,yes,no,300234061369140,CALIB,AWI-USIABP,unknown,North
2015-04-22T19:00:28Z,1429729229,2015,19,0,112.792,112.792,82.8104,16.6516,1010.5,-7.9,-999.0,yes,yes,no,300234061369140,CALIB,AWI-USIABP,unknown,North
2015-04-22T19:59:31Z,1429732771,2015,20,0,112.833,112.833,82.8104,16.6516,1010.5,-7.9,-999.0,yes,yes,no,300234061369140,CALIB,AWI-USIABP,unknown,North
2015-04-22T21:00:00Z,1429736400,2015,21,0,112.875,112.875,82.8096,16.6642,1010.4,-8.0,-999.0,yes,yes,no,300234061369140,CALIB,AWI-USIABP,unknown,North
2015-04-22T22:00:28Z,1429740029,2015,22,0,112.917,112.917,82.8096,16.6642,1010.6,-8.0,-999.0,yes,yes,no,300234061369140,CALIB,AWI-USIABP,unknown,North
2015-04-22T22:59:31Z,1429743571,2015,23,0,112.958,112.958,82.8096,16.6642,1010.9,-8.0,-999.0,yes,yes,no,300234061369140,CALIB,AWI-USIABP,unknown,North
2015-04-23T00:00:00Z,1429747200,2015,0,0,113.0,113.0,82.8092,16.6696,1011.0,-8.0,-999.0,yes,yes,no,300234061369140,CALIB,AWI-USIABP,unknown,North
2015-04-23T01:00:28Z,1429750829,2015,1,0,113.042,113.042,82.8092,16.6696,1011.3,-8.1,-999.0,yes,yes,no,300234061369140,CALIB,AWI-USIABP,unknown,North
2015-04-23T01:59:31Z,1429754371,2015,2,0,113.083,113.083,82.8092,16.6696,1011.7,-8.2,-999.0,yes,yes,no,300234061369140,CALIB,AWI-USIABP,unknown,North
2015-04-23T03:00:00Z,1429758000,2015,3,0,113.125,113.125,82.8072,16.658,1011.9,-8.2,-999.0,yes,yes,no,300234061369140,CALIB,AWI-USIABP,unknown,North
2015-04-23T04:00:28Z,1429761629,2015,4,0,113.167,113.167,82.8072,16.658,1012.7,-8.2,-999.0,yes,yes,no,300234061369140,CALIB,AWI-USIABP,unknown,North
2015-04-23T04:59:31Z,1429765171,2015,5,0,113.208,113.208,82.8072,16.658,1013.3,-8.2,-999.0,yes,yes,no,300234061369140,CALIB,AWI-USIABP,unknown,North
2015-04-23T06:00:00Z,1429768800,2015,6,0,113.25,113.25,82.8056,16.6196,1013.8,-8.2,-999.0,yes,yes,no,300234061369140,CALIB,AWI-USIABP,unknown,North
2015-04-23T07:00:28Z,1429772429,2015,7,0,113.292,113.292,82.8056,16.6196,1014.4,-8.2,-999.0,yes,yes,no,300234061369140,CALIB,AWI-USIABP,unknown,North
2015-04-23T07:59:31Z,1429775971,2015,8,0,113.333,113.333,82.8056,16.6196,1015.0,-8.2,-999.0,yes,yes,no,300234061369140,CALIB,AWI-USIABP,unknown,North
2015-04-23T09:00:00Z,1429779600,2015,9,0,113.375,113.375,82.801,16.5594,1015.5,-8.1,-999.0,yes,yes,no,300234061369140,CALIB,AWI-USIABP,unknown,North
2015-04-23T10:00:28Z,1429783229,2015,10,0,113.417,113.417,82.801,16.5594,1015.8,-8.1,-999.0,yes,yes,no,300234061369140,CALIB,AWI-USIABP,unknown,North
2015-04-23T10:59:31Z,1429786771,2015,11,0,113.458,113.458,82.801,16.5594,1016.2,-8.1,-999.0,yes,yes,no,300234061369140,CALIB,AWI-USIABP,unknown,North
2015-04-23T12:00:00Z,1429790400,2015,12,0,113.5,113.5,82.79,16.4848,1016.3,-8.0,-999.0,yes,yes,no,300234061369140,CALIB,AWI-USIABP,unknown,North
2015-04-23T13:00:28Z,1429794029,2015,13,0,113.542,113.542,82.79,16.4848,1016.6,-8.0,-999.0,yes,yes,no,300234061369140,CALIB,AWI-USIABP,unknown,North
2015-04-23T13:59:31Z,1429797571,2015,14,0,113.583,113.583,82.79,16.4848,1016.7,-8.0,-999.0,yes,yes,no,300234061369140,CALIB,AWI-USIABP,unknown,North
2015-04-23T15:00:00Z,1429801200,2015,15,0,113.625,113.625,82.7756,16.3852,1016.6,-7.9,-999.0,yes,yes,no,300234061369140,CALIB,AWI-USIABP,unknown,North
2015-04-23T16:00:28Z,1429804829,2015,16,0,113.667,113.667,82.7756,16.3852,1016.6,-7.9,-999.0,yes,yes,no,300234061369140,CALIB,AWI-USIABP,unknown,North
2015-04-23T16:59:31Z,1429808371,2015,17,0,113.708,113.708,82.7756,16.3852,1016.6,-7.8,-999.0,yes,yes,no,300234061369140,CALIB,AWI-USIABP,unknown,North
2015-04-23T18:00:00Z,1429812000,2015,18,0,113.75,113.75,82.758,16.264,1016.6,-7.8,-999.0,yes,yes,no,300234061369140,CALIB,AWI-USIABP,unknown,North
2015-04-23T19:00:28Z,1429815629,2015,19,0,113.792,113.792,82.758,16.264,1016.2,-7.7,-999.0,yes,yes,no,300234061369140,CALIB,AWI-USIABP,unknown,North
2015-04-23T19:59:31Z,1429819171,2015,20,0,113.833,113.833,82.758,16.264,1016.4,-7.7,-999.0,yes,yes,no,300234061369140,CALIB,AWI-USIABP,unknown,North
2015-04-23T21:00:00Z,1429822800,2015,21,0,113.875,113.875,82.7422,16.0664,1016.8,-7.7,-999.0,yes,yes,no,300234061369140,CALIB,AWI-USIABP,unknown,North
2015-04-23T22:00:28Z,1429826429,2015,22,0,113.917,113.917,82.7422,16.0664,1017.1,-7.7,-999.0,yes,yes,no,300234061369140,CALIB,AWI-USIABP,unknown,North
2015-04-23T22:59:31Z,1429829971,2015,23,0,113.958,113.958,82.7422,16.0664,1017.5,-7.7,-999.0,yes,yes,no,300234061369140,CALIB,AWI-USIABP,unknown,North
2015-04-24T00:00:00Z,1429833600,2015,0,0,114.0,114.0,82.7292,15.8706,1018.4,-7.8,-999.0,yes,yes,no,300234061369140,CALIB,AWI-USIABP,unknown,North
2015-04-24T01:00:28Z,1429837229,2015,1,0,114.042,114.042,82.7292,15.8706,1019.3,-7.8,-999.0,yes,yes,no,300234061369140,CALIB,AWI-USIABP,unknown,North
2015-04-24T01:59:31Z,1429840771,2015,2,0,114.083,114.083,82.7292,15.8706,1020.5,-7.8,-999.0,yes,yes,no,300234061369140,CALIB,AWI-USIABP,unknown,North
2015-04-24T03:00:00Z,1429844400,2015,3,0,114.125,114.125,82.725,15.6784,1021.4,-7.8,-999.0,yes,yes,no,300234061369140,CALIB,AWI-USIABP,unknown,North
2015-04-24T04:00:28Z,1429848029,2015,4,0,114.167,114.167,82.725,15.6784,1022.7,-7.9,-999.0,yes,yes,no,300234061369140,CALIB,AWI-USIABP,unknown,North
2015-04-24T04:59:31Z,1429851571,2015,5,0,114.208,114.208,82.725,15.6784,1023.5,-7.9,-999.0,yes,yes,no,300234061369140,CALIB,AWI-USIABP,unknown,North
2015-04-24T06:00:00Z,1429855200,2015,6,0,114.25,114.25,82.7252,15.5438,1024.5,-7.9,-999.0,yes,yes,no,300234061369140,CALIB,AWI-USIABP,unknown,North
2015-04-24T07:00:28Z,1429858829,2015,7,0,114.292,114.292,82.7252,15.5438,1026.0,-7.9,-999.0,yes,yes,no,300234061369140,CALIB,AWI-USIABP,unknown,North
2015-04-24T07:59:31Z,1429862371,2015,8,0,114.333,114.333,82.7252,15.5438,1027.3,-8.0,-999.0,yes,yes,no,300234061369140,CALIB,AWI-USIABP,unknown,North
2015-04-24T09:00:00Z,1429866000,2015,9,0,114.375,114.375,82.722,15.4664,1028.1,-8.0,-999.0,yes,yes,no,300234061369140,CALIB,AWI-USIABP,unknown,North
2015-04-24T10:00:28Z,1429869629,2015,10,0,114.417,114.417,82.722,15.4664,1028.8,-7.9,-999.0,yes,yes,no,300234061369140,CALIB,AWI-USIABP,unknown,North
2015-04-24T10:59:31Z,1429873171,2015,11,0,114.458,114.458,82.722,15.4664,1029.3,-7.9,-999.0,yes,yes,no,300234061369140,CALIB,AWI-USIABP,unknown,North
2015-04-24T12:00:00Z,1429876800,2015,12,0,114.5,114.5,82.7098,15.4054,1029.8,-7.9,-999.0,yes,yes,no,300234061369140,CALIB,AWI-USIABP,unknown,North
2015-04-24T13:00:28Z,1429880429,2015,13,0,114.542,114.542,82.7098,15.4054,1030.2,-7.9,-999.0,yes,yes,no,300234061369140,CALIB,AWI-USIABP,unknown,North
2015-04-24T13:59:31Z,1429883971,2015,14,0,114.583,114.583,82.7098,15.4054,1030.5,-7.9,-999.0,yes,yes,no,300234061369140,CALIB,AWI-USIABP,unknown,North
2015-04-24T15:00:00Z,1429887600,2015,15,0,114.625,114.625,82.693,15.3398,1030.7,-7.9,-999.0,yes,yes,no,300234061369140,CALIB,AWI-USIABP,unknown,North
2015-04-24T16:00:28Z,1429891229,2015,16,0,114.667,114.667,82.693,15.3398,1030.9,-7.9,-999.0,yes,yes,no,300234061369140,CALIB,AWI-USIABP,unknown,North
2015-04-24T16:59:31Z,1429894771,2015,17,0,114.708,114.708,82.693,15.3398,1030.9,-7.9,-999.0,yes,yes,no,300234061369140,CALIB,AWI-USIABP,unknown,North
2015-04-24T18:00:00Z,1429898400,2015,18,0,114.75,114.75,82.6778,15.324,1031.0,-7.9,-999.0,yes,yes,no,300234061369140,CALIB,AWI-USIABP,unknown,North
2015-04-24T19:00:28Z,1429902029,2015,19,0,114.792,114.792,82.6778,15.324,1030.9,-7.9,-999.0,yes,yes,no,300234061369140,CALIB,AWI-USIABP,unknown,North
2015-04-24T19:59:31Z,1429905571,2015,20,0,114.833,114.833,82.6778,15.324,1031.1,-7.9,-999.0,yes,yes,no,300234061369140,CALIB,AWI-USIABP,unknown,North
2015-04-24T21:00:00Z,1429909200,2015,21,0,114.875,114.875,82.6632,15.3456,1031.3,-7.9,-999.0,yes,yes,no,300234061369140,CALIB,AWI-USIABP,unknown,North
2015-04-24T22:00:28Z,1429912829,2015,22,0,114.917,114.917,82.6632,15.3456,1031.1,-7.9,-999.0,yes,yes,no,300234061369140,CALIB,AWI-USIABP,unknown,North
2015-04-24T22:59:31Z,1429916371,2015,23,0,114.958,114.958,82.6632,15.3456,1031.0,-7.9,-999.0,yes,yes,no,300234061369140,CALIB,AWI-USIABP,unknown,North
2015-04-25T00:00:00Z,1429920000,2015,0,0,115.0,115.0,82.6486,15.3486,1030.8,-7.9,-999.0,yes,yes,no,300234061369140,CALIB,AWI-USIABP,unknown,North
2015-04-25T01:00:28Z,1429923629,2015,1,0,115.042,115.042,82.6486,15.3486,1030.5,-7.9,-999.0,yes,yes,no,300234061369140,CALIB,AWI-USIABP,unknown,North
2015-04-25T01:59:31Z,1429927171,2015,2,0,115.083,115.083,82.6486,15.3486,1030.6,-7.9,-999.0,yes,yes,no,300234061369140,CALIB,AWI-USIABP,unknown,North
2015-04-25T03:00:00Z,1429930800,2015,3,0,115.125,115.125,82.6348,15.341,1030.3,-7.9,-999.0,yes,yes,no,300234061369140,CALIB,AWI-USIABP,unknown,North
2015-04-25T04:00:28Z,1429934429,2015,4,0,115.167,115.167,82.6348,15.341,1030.0,-7.9,-999.0,yes,yes,no,300234061369140,CALIB,AWI-USIABP,unknown,North
2015-04-25T04:59:31Z,1429937971,2015,5,0,115.208,115.208,82.6348,15.341,1029.9,-7.8,-999.0,yes,yes,no,300234061369140,CALIB,AWI-USIABP,unknown,North
2015-04-25T06:00:00Z,1429941600,2015,6,0,115.25,115.25,82.6224,15.3746,1029.9,-7.8,-999.0,yes,yes,no,300234061369140,CALIB,AWI-USIABP,unknown,North
2015-04-25T07:00:28Z,1429945229,2015,7,0,115.292,115.292,82.6224,15.3746,1030.0,-7.8,-999.0,yes,yes,no,300234061369140,CALIB,AWI-USIABP,unknown,North
2015-04-25T07:59:31Z,1429948771,2015,8,0,115.333,115.333,82.6224,15.3746,1029.9,-7.8,-999.0,yes,yes,no,300234061369140,CALIB,AWI-USIABP,unknown,North
2015-04-25T09:00:00Z,1429952400,2015,9,0,115.375,115.375,82.6068,15.4206,1029.8,-7.7,-999.0,yes,yes,no,300234061369140,CALIB,AWI-USIABP,unknown,North
2015-04-25T10:00:28Z,1429956029,2015,10,0,115.417,115.417,82.6068,15.4206,1029.7,-7.7,-999.0,yes,yes,no,300234061369140,CALIB,AWI-USIABP,unknown,North
2015-04-25T10:59:31Z,1429959571,2015,11,0,115.458,115.458,82.6068,15.4206,1029.7,-7.7,-999.0,yes,yes,no,300234061369140,CALIB,AWI-USIABP,unknown,North
2015-04-25T12:00:00Z,1429963200,2015,12,0,115.5,115.5,82.5858,15.4394,1029.6,-7.6,-999.0,yes,yes,no,300234061369140,CALIB,AWI-USIABP,unknown,North
2015-04-25T13:00:28Z,1429966829,2015,13,0,115.542,115.542,82.5858,15.4394,1029.8,-7.6,-999.0,yes,yes,no,300234061369140,CALIB,AWI-USIABP,unknown,North
2015-04-25T13:59:31Z,1429970371,2015,14,0,115.583,115.583,82.5858,15.4394,1029.9,-7.5,-999.0,yes,yes,no,300234061369140,CALIB,AWI-USIABP,unknown,North
2015-04-25T15:00:00Z,1429974000,2015,15,0,115.625,115.625,82.5604,15.4194,1029.7,-7.5,-999.0,yes,yes,no,300234061369140,CALIB,AWI-USIABP,unknown,North
2015-04-25T16:00:28Z,1429977629,2015,16,0,115.667,115.667,82.5604,15.4194,1029.6,-7.5,-999.0,yes,yes,no,300234061369140,CALIB,AWI-USIABP,unknown,North
2015-04-25T16:59:31Z,1429981171,2015,17,0,115.708,115.708,82.5604,15.4194,1029.4,-7.5,-999.0,yes,yes,no,300234061369140,CALIB,AWI-USIABP,unknown,North
2015-04-25T18:00:00Z,1429984800,2015,18,0,115.75,115.75,82.533,15.3874,1029.0,-7.5,-999.0,yes,yes,no,300234061369140,CALIB,AWI-USIABP,unknown,North
2015-04-25T19:00:28Z,1429988429,2015,19,0,115.792,115.792,82.533,15.3874,1028.7,-7.4,-999.0,yes,yes,no,300234061369140,CALIB,AWI-USIABP,unknown,North
2015-04-25T19:59:31Z,1429991971,2015,20,0,115.833,115.833,82.533,15.3874,1028.3,-7.4,-999.0,yes,yes,no,300234061369140,CALIB,AWI-USIABP,unknown,North
2015-04-25T21:00:00Z,1429995600,2015,21,0,115.875,115.875,82.5072,15.3764,1028.0,-7.3,-999.0,yes,yes,no,300234061369140,CALIB,AWI-USIABP,unknown,North
2015-04-25T22:00:28Z,1429999229,2015,22,0,115.917,115.917,82.5072,15.3764,1027.2,-7.3,-999.0,yes,yes,no,300234061369140,CALIB,AWI-USIABP,unknown,North
2015-04-25T22:59:31Z,1430002771,2015,23,0,115.958,115.958,82.5072,15.3764,1026.7,-7.3,-999.0,yes,yes,no,300234061369140,CALIB,AWI-USIABP,unknown,North
2015-04-26T00:00:00Z,1430006400,2015,0,0,116.0,116.0,82.478,15.3546,1025.8,-7.2,-999.0,yes,yes,no,300234061369140,CALIB,AWI-USIABP,unknown,North
2015-04-26T01:00:28Z,1430010029,2015,1,0,116.042,116.042,82.478,15.3546,1025.2,-7.2,-999.0,yes,yes,no,300234061369140,CALIB,AWI-USIABP,unknown,North
2015-04-26T01:59:31Z,1430013571,2015,2,0,116.083,116.083,82.478,15.3546,1024.4,-7.2,-999.0,yes,yes,no,300234061369140,CALIB,AWI-USIABP,unknown,North
2015-04-26T03:00:00Z,1430017200,2015,3,0,116.125,116.125,82.4558,15.3132,1023.7,-7.1,-999.0,yes,yes,no,300234061369140,CALIB,AWI-USIABP,unknown,North
2015-04-26T04:00:28Z,1430020829,2015,4,0,116.167,116.167,82.4558,15.3132,1022.7,-7.1,-999.0,yes,yes,no,300234061369140,CALIB,AWI-USIABP,unknown,North
2015-04-26T04:59:31Z,1430024371,2015,5,0,116.208,116.208,82.4558,15.3132,1022.3,-7.1,-999.0,yes,yes,no,300234061369140,CALIB,AWI-USIABP,unknown,North
2015-04-26T06:00:00Z,1430028000,2015,6,0,116.25,116.25,82.442,15.345,1021.9,-7.0,-999.0,yes,yes,no,300234061369140,CALIB,AWI-USIABP,unknown,North
2015-04-26T07:00:28Z,1430031629,2015,7,0,116.292,116.292,82.442,15.345,1021.6,-6.9,-999.0,yes,yes,no,300234061369140,CALIB,AWI-USIABP,unknown,North
2015-04-26T07:59:31Z,1430035171,2015,8,0,116.333,116.333,82.442,15.345,1021.5,-6.9,-999.0,yes,yes,no,300234061369140,CALIB,AWI-USIABP,unknown,North
2015-04-26T09:00:00Z,1430038800,2015,9,0,116.375,116.375,82.4262,15.3784,1021.4,-6.8,-999.0,yes,yes,no,300234061369140,CALIB,AWI-USIABP,unknown,North
2015-04-26T10:00:28Z,1430042429,2015,10,0,116.417,116.417,82.4262,15.3784,1021.5,-6.8,-999.0,yes,yes,no,300234061369140,CALIB,AWI-USIABP,unknown,North
2015-04-26T10:59:31Z,1430045971,2015,11,0,116.458,116.458,82.4262,15.3784,1021.6,-6.7,-999.0,yes,yes,no,300234061369140,CALIB,AWI-USIABP,unknown,North
2015-04-26T12:00:00Z,1430049600,2015,12,0,116.5,116.5,82.4056,15.374,1021.8,-6.7,-999.0,yes,yes,no,300234061369140,CALIB,AWI-USIABP,unknown,North
2015-04-26T13:00:28Z,1430053229,2015,13,0,116.542,116.542,82.4056,15.374,1022.0,-6.6,-999.0,yes,yes,no,300234061369140,CALIB,AWI-USIABP,unknown,North
2015-04-26T13:59:31Z,1430056771,2015,14,0,116.583,116.583,82.4056,15.374,1022.2,-6.6,-999.0,yes,yes,no,300234061369140,CALIB,AWI-USIABP,unknown,North
2015-04-26T15:00:00Z,1430060400,2015,15,0,116.625,116.625,82.3816,15.328,1022.6,-6.6,-999.0,yes,yes,no,300234061369140,CALIB,AWI-USIABP,unknown,North
2015-04-26T16:00:28Z,1430064029,2015,16,0,116.667,116.667,82.3816,15.328,1022.8,-6.5,-999.0,yes,yes,no,300234061369140,CALIB,AWI-USIABP,unknown,North
2015-04-26T16:59:31Z,1430067571,2015,17,0,116.708,116.708,82.3816,15.328,1023.0,-6.5,-999.0,yes,yes,no,300234061369140,CALIB,AWI-USIABP,unknown,North
2015-04-26T18:00:00Z,1430071200,2015,18,0,116.75,116.75,82.354,15.2462,1023.0,-6.5,-999.0,yes,yes,no,300234061369140,CALIB,AWI-USIABP,unknown,North
2015-04-26T19:00:28Z,1430074829,2015,19,0,116.792,116.792,82.354,15.2462,1023.2,-6.4,-999.0,yes,yes,no,300234061369140,CALIB,AWI-USIABP,unknown,North
2015-04-26T19:59:31Z,1430078371,2015,20,0,116.833,116.833,82.354,15.2462,1023.5,-6.4,-999.0,yes,yes,no,300234061369140,CALIB,AWI-USIABP,unknown,North
2015-04-26T21:00:00Z,1430082000,2015,21,0,116.875,116.875,82.325,15.1106,1023.7,-6.4,-999.0,yes,yes,no,300234061369140,CALIB,AWI-USIABP,unknown,North
2015-04-26T22:00:28Z,1430085629,2015,22,0,116.917,116.917,82.325,15.1106,1023.9,-6.4,-999.0,yes,yes,no,300234061369140,CALIB,AWI-USIABP,unknown,North
2015-04-26T22:59:31Z,1430089171,2015,23,0,116.958,116.958,82.325,15.1106,1024.2,-6.4,-999.0,yes,yes,no,300234061369140,CALIB,AWI-USIABP,unknown,North
2015-04-27T00:00:00Z,1430092800,2015,0,0,117.0,117.0,82.3002,14.9182,1024.5,-6.4,-999.0,yes,yes,no,300234061369140,CALIB,AWI-USIABP,unknown,North